Location: DaltonSkyGazer Observatory
(42.4858°N, 73.1565°W)
Time: 20:53:31
(UTC-04:00)

Daily predictions for brighter satellites

Satellite Brightness Start Highest point End
(mag) Time Altitude Azimuth Time Altitude Azimuth Time Altitude Azimuth
Cosmos 1844 3.9 20:01:32 10° NNW 20:07:11 61° ENE 20:12:51 10° SE
Cosmos 2251 Rocket 3.6 20:04:33 10° NNW 20:09:58 74° ENE 20:15:19 10° SSE
Envisat 3.0 20:06:30 10° SSE 20:11:35 81° ENE 20:16:41 10° N
Cosmos 2219 Rocket 2.4 20:06:44 10° S 20:12:11 52° ESE 20:17:39 10° NE
USA 186 1.8 20:10:11 10° SE 20:12:12 30° ENE 20:14:17 10° N
Meteor 2-2 Rocket 4.5 20:06:48 10° S 20:12:28 55° E 20:18:16 10° NNE
Cosmos 1892 3.0 20:10:20 10° N 20:14:08 49° E 20:17:53 10° SSE
Cosmos 2237 Rocket 3.1 20:09:46 10° SSE 20:14:20 26° ESE 20:18:54 10° NE
BREEZE-M DEB (TANK) 4.1 20:08:45 10° WNW 20:15:06 49° SW 20:18:28 10° SE
YAOGAN 6 2.9 20:15:52 10° SSE 20:19:20 49° ENE 20:22:53 10° N
Nadezhda 3 Rocket 4.1 20:14:48 10° N 20:21:07 69° E 20:27:26 10° SSE
Cosmos 2278 Rocket 2.9 20:17:37 10° N 20:22:53 37° ENE 20:27:58 11° ESE
Meteor 2-15 Rocket 4.4 20:19:06 10° N 20:25:15 74° E 20:31:22 10° SSE
Cosmos 1633 Rocket 3.0 20:22:03 10° N 20:26:22 64° E 20:30:41 10° SSE
Genesis I 3.8 20:22:31 10° NNW 20:26:29 46° NE 20:30:04 12° SE
NOSS 2-1 (C) 4.2 20:34:02 10° SW 20:37:34 51° NW 20:41:32 10° NNE
Cosmos 1515 Rocket 4.0 20:34:01 10° SSE 20:38:10 40° E 20:42:21 10° NNE
NOSS 2-1 (D) 4.3 20:35:02 10° SW 20:38:34 49° NW 20:42:31 10° NNE
BREEZE-M DEB (TANK) 2.5 20:34:02 10° WNW 20:38:55 71° NNE 20:40:37 18° ESE
Cosmos 1340 3.6 20:35:49 10° SSW 20:39:31 52° WNW 20:43:14 10° N
Thor Agena Rocket 3.6 20:36:12 10° NNE 20:41:28 86° WNW 20:46:44 10° SSW
Cosmos 2228 Rocket 3.4 20:38:43 10° SSE 20:42:53 45° E 20:47:05 10° NNE
Lacrosse 5 4.3 20:41:54 10° NNW 20:44:57 16° N 20:47:58 10° NE
ATLAS 2AS CENTAUR R/B 3.0 20:37:42 10° NW 20:45:42 83° NE 20:52:15 14° SE
Cosmos 1825 2.7 20:49:15 10° N 20:52:51 39° ENE 20:54:53 21° SE
NOSS 3 (A) 4.4 20:51:42 10° SSW 20:54:24 59° ESE 20:57:25 10° NE
Spot 2 Rocket 3.5 20:49:21 10° SSE 20:54:26 79° ENE 20:59:33 10° N
Cosmos 1328 Rocket 3.6 20:52:32 10° S 20:56:57 85° W 21:01:25 10° N
ATLAS CENTAUR R/B 1.2 20:55:52 10° SW 20:59:30 76° NW 21:03:21 10° NNE
SL-8 R/B 3.7 20:55:14 10° SW 20:59:57 63° SSE 21:04:43 10° ENE
SL-16 R/B 3.1 21:01:33 18° SE 21:04:27 27° ESE 21:09:09 10° NE
Resurs 01 Rocket 2.2 21:02:57 10° S 21:07:19 56° W 21:11:42 10° NNW
Cosmos 1959 Rocket 4.5 21:03:17 10° S 21:09:21 61° E 21:15:22 10° NNE
Cosmos 1470 Rocket 3.6 21:05:05 10° N 21:09:30 83° W 21:13:18 14° S
ARGOS 3.5 21:06:46 23° SE 21:09:48 46° ENE 21:14:53 10° N
Cosmos 1727 Rocket 4.4 21:04:07 10° N 21:10:01 45° ENE 21:13:28 23° SE
Meteor 2-3 Rocket 4.2 21:07:51 10° NNW 21:13:22 60° W 21:18:54 10° S
BREEZE-M DEB (TANK) 4.2 21:07:20 10° W 21:14:12 34° NNW 21:16:53 10° NE
NOSS 3-4 (A) 4.3 21:09:15 10° NNW 21:16:01 50° NE 21:20:26 24° ESE
NOSS 3-4 (C) 4.3 21:09:21 10° NNW 21:16:07 49° NE 21:20:31 24° ESE
CZ-4B DEB 4.4 21:15:50 31° SSE 21:17:22 83° ENE 21:20:54 10° N
Cosmos 1939 Rocket 4.4 21:14:27 10° SSW 21:17:57 32° W 21:21:30 10° NNW
SL-08 RB Rocket 4.3 21:18:27 31° ESE 21:19:51 39° ENE 21:24:01 10° N
Cosmos 1869 3.2 21:19:48 22° S 21:22:20 73° E 21:26:22 10° NNE
NOSS 0 Rocket 4.2 21:17:47 10° SSW 21:23:56 73° WNW 21:30:11 10° NNE
Meteor 2-10 Rocket 3.8 21:20:50 16° S 21:25:20 60° E 21:31:05 10° NNE
Cosmos 2218 Rocket 4.0 21:20:18 10° S 21:26:38 84° E 21:33:05 10° N
USA 267 3.8 21:22:45 10° ENE 21:28:28 32° SE 21:34:09 10° S
SL-08 R/B 4.5 21:23:57 11° S 21:29:59 72° E 21:36:24 10° NNE
USA 81 4.2 21:25:19 10° N 21:30:29 52° E 21:32:21 35° SE
Cosmos 1980 4.0 21:24:57 10° SSW 21:30:37 70° WNW 21:36:19 10° NNE
ERS-1 Rocket 3.3 21:30:09 35° ESE 21:31:48 49° ENE 21:36:39 10° N
Cosmos 407 Rocket 3.6 21:27:32 10° NNW 21:32:36 57° ENE 21:34:17 38° SE
Cosmos 2297 4.0 21:29:49 10° NNW 21:35:23 54° ENE 21:37:25 36° ESE
Cosmos 1408 3.5 21:32:44 10° NNW 21:36:16 46° W 21:38:11 23° SSW
Cosmos 1933 Rocket 4.4 21:33:50 10° NNW 21:38:03 48° W 21:41:04 18° SSW
Cosmos 2366 rocket 4.0 21:31:56 10° S 21:38:09 88° WNW 21:44:29 10° N
H-2A R/B 2.0 21:36:33 39° SE 21:38:17 62° ENE 21:43:12 10° N
Cosmos 2369 Rocket 4.1 21:38:12 10° N 21:41:34 16° NE 21:43:31 14° ENE
Cosmos 2333 Rocket 3.7 21:36:27 10° SW 21:41:40 37° WNW 21:46:55 10° N
Cosmos 1151 Rocket 4.3 21:38:15 10° SSW 21:42:15 40° WNW 21:46:18 10° N
Cosmos 1371 Rocket 4.1 21:37:12 10° SSW 21:42:31 82° WNW 21:47:55 10° NNE
Cosmos 1441 Rocket 3.6 21:45:32 46° NE 21:45:32 46° NE 21:48:32 10° NNE
Helios 1B rocket 4.0 21:46:44 10° NNE 21:48:47 23° ENE 21:48:47 23° ENE
Cosmos 1707 Rocket 3.8 21:52:59 48° ENE 21:52:59 48° ENE 21:56:45 10° NNE
Cosmos 676 Rocket 4.2 21:47:33 10° NNW 21:52:43 54° ENE 21:53:36 47° ESE
MetOp-A 4.2 21:51:21 34° S 21:53:44 74° WSW 21:59:07 10° NNW
CZ-4C R/B 4.0 21:59:36 16° ENE 21:59:36 16° ENE 22:01:06 10° NE
Cosmos 2219 Rocket 4.4 21:51:46 10° WSW 21:56:26 26° NW 22:01:06 10° N
Cosmos 2237 Rocket 3.2 21:52:43 10° SW 21:58:06 46° WNW 22:03:31 10° NNE
Cosmos 1869 Rocket 3.4 21:56:09 10° N 22:00:33 89° E 22:00:54 76° SSE
Cosmos 2056 Rocket 3.8 21:58:38 10° SSW 22:04:02 68° WNW 22:09:27 10° NNE
Cosmos 1452 Rocket 3.9 22:05:38 46° E 22:05:38 46° E 22:10:00 10° NNE
Cosmos 2278 Rocket 3.5 22:01:49 10° NW 22:06:53 34° WSW 22:09:51 21° SSW
Helios 1A 2.9 22:08:42 80° NNE 22:08:42 80° NNE 22:12:46 10° NNW
Terra 2.8 22:09:24 33° ENE 22:09:24 33° ENE 22:13:20 10° N
Cosmos 1862 3.4 22:05:49 10° NNW 22:09:45 71° W 22:09:45 71° W
ATLAS 5 CENTAUR R/B 3.9 22:05:42 10° NNW 22:10:19 24° NE 22:12:36 19° ENE
Cosmos 2098 Rocket 4.3 22:07:13 14° SW 22:10:46 37° W 22:14:22 10° N
Cosmos 1733 Rocket 4.3 22:07:54 10° N 22:10:52 29° NE 22:10:52 29° NE
Cosmos 405 Rocket 3.2 22:15:04 60° NW 22:15:04 60° NW 22:18:32 10° N
Cosmos 1437 Rocket 4.3 22:11:34 10° N 22:13:44 26° NNE 22:13:44 26° NNE
Cosmos 405 4.4 22:14:31 10° NNW 22:17:29 33° W 22:17:29 33° W
Cosmos 1140 Rocket 3.3 22:21:51 10° NNW 22:27:04 90° NE 22:27:07 88° SSE
ATLAS 2A CENTAUR R/B 4.5 22:16:01 10° SW 22:27:52 28° S 22:27:52 28° S
SPOT 5 2.8 22:28:34 74° WNW 22:28:34 74° WNW 22:32:49 10° NNW
Lacrosse 5 3.3 22:25:04 10° NNW 22:29:26 28° NNE 22:30:32 26° NE
Cosmos 1934 Rocket 3.9 22:33:03 62° E 22:33:03 62° E 22:38:58 10° NNE
IGS 5A 4.5 22:35:30 41° N 22:35:30 41° N 22:38:22 10° N
Cosmos 1954 Rocket 4.0 22:31:38 10° NNW 22:36:48 73° W 22:36:48 73° W
GEOS 3 Rocket 3.9 22:34:48 10° NNE 22:40:08 67° NW 22:43:44 21° SW
CZ-2C R/B 3.8 22:49:11 40° NNE 22:49:11 40° NNE 22:52:38 10° N
SL-16 R/B 3.2 22:43:10 11° SW 22:48:18 44° WNW 22:53:44 10° NNE
Cosmos 2344 3.5 22:44:51 10° SW 22:52:27 85° NW 23:00:56 10° NE
SL-19 R/B 4.5 22:53:15 61° WSW 22:53:24 61° WSW 22:58:57 10° NNW
Cosmos 1943 Rocket 3.2 22:49:57 10° N 22:54:37 35° NE 22:54:37 35° NE
Cosmos 1821 Rocket 4.4 22:57:37 49° SW 22:59:02 61° W 23:05:18 10° N
USA 267 3.3 23:05:17 10° NE 23:11:50 76° NW 23:18:20 10° WSW
Cosmos 1603 4.1 23:16:16 58° N 23:16:16 58° N 23:20:47 10° NNE
Cosmos 2123 Rocket 4.1 23:09:37 10° NNW 23:15:50 69° W 23:15:50 69° W
H-2A R/B 4.2 23:17:10 15° WSW 23:18:06 15° W 23:21:02 10° NW
Cosmos 1943 4.3 23:21:18 35° NE 23:21:18 35° NE 23:24:32 10° NNE
Cosmos 2369 Rocket 2.7 23:20:45 10° NNW 23:25:18 58° NNW 23:25:18 58° NNW
CZ-2C R/B 3.5 23:35:48 10° N 23:39:33 47° N 23:39:33 47° N
CZ-4C R/B 3.0 23:44:41 47° NW 23:44:41 47° NW 23:50:20 10° NNE
USA 234 3.3 23:45:38 74° NNE 23:45:38 74° NNE 23:51:54 10° NW
Terra 3.8 23:48:17 23° WNW 23:48:17 23° WNW 23:50:50 10° NW
